Location: Bieg
(49.3499°N, 10.3835°E)
Time: 11:19:15
(UTC+00:00)

Cosmos 2360 Rocket - Pass Details

Date: 23 May 2024
Orbit: 832 x 846 km, 71.0° (Epoch: 20 June)

Event Time Altitude Azimuth Distance (km) Brightness Sun altitude
Rises 00:13:26 0° 334° (NNW) 3,416 6.2 -18.8°
Reaches altitude 10° 00:16:12 10° 345° (NNW) 2,478 5.5 -18.7°
Maximum altitude 00:21:10 30° 46° (NE) 1,487 4.1 -18.5°
Drops below altitude 10° 00:26:06 10° 107° (ESE) 2,468 4.6 -18.3°
Sets 00:28:51 0° 118° (ESE) 3,399 5.3 -18.1°
